Terminal Aerodrome Forecast
Issued by NWS

Home | Current Version | Previous Version | Text Only | Print | Product List | Glossary On
Versions: 1 2 3 4 5 6 7 8 9 10 11 12 13 14 15 16 17 18 19 20 21
000
FTUS41 KPBZ 282200 AAA
TAFDUJ
TAF AMD
KDUJ 282205Z 2822/2918 32010KT P6SM BKN035
      TEMPO 2822/2901 5SM -RA BKN015=

USA.gov is the U.S. government's official web portal to all federal, state and local government web resources and services.